• In Uzbekistan
  • List of Countries
  • For 7 days
  • Water Temperature
  • Weather Map
  • Weather Widgets
  • user-avatar
    Login

    Hourly Weather Zaranj

    Today, 29 January, Wednesday

    Time Temperature Precipitation Wind Pressure Humidity
    00:00 +5°C° 0 mm 7 mps 722 mmHg 50%
    01:00 +5°C° 0 mm 6 mps 722 mmHg 50%
    02:00 +5°C° 0 mm 6 mps 722 mmHg 51%
    03:00 +5°C° 0 mm 6 mps 721 mmHg 51%
    04:00 +4°C° 0 mm 6 mps 721 mmHg 52%
    05:00 +5°C° 0 mm 5 mps 721 mmHg 53%
    06:00 +5°C° 0 mm 5 mps 722 mmHg 54%
    07:00 +5°C° 0 mm 5 mps 722 mmHg 55%
    08:00 +6°C° 0 mm 5 mps 723 mmHg 50%
    09:00 +7°C° 0 mm 5 mps 723 mmHg 45%
    10:00 +9°C° 0 mm 5 mps 724 mmHg 40%
    11:00 +9°C° 0 mm 5 mps 723 mmHg 37%
    12:00 +11°C° 0 mm 4 mps 722 mmHg 35%
    13:00 +12°C° 0 mm 3 mps 722 mmHg 32%
    14:00 +12°C° 0 mm 3 mps 722 mmHg 32%
    15:00 +12°C° 0 mm 3 mps 721 mmHg 31%
    16:00 +13°C° 0 mm 2 mps 721 mmHg 31%
    17:00 +12°C° 0 mm 2 mps 722 mmHg 34%
    18:00 +10°C° 0 mm 2 mps 722 mmHg 37%
    19:00 +9°C° 0 mm 2 mps 722 mmHg 41%
    20:00 +9°C° 0 mm 2 mps 722 mmHg 41%
    21:00 +9°C° 0 mm 2 mps 722 mmHg 41%
    22:00 +9°C° 0 mm 2 mps 722 mmHg 42%
    23:00 +8°C° 0 mm 2 mps 722 mmHg 44%

    Tomorrow, 30 January, Thursday

    Time Temperature Precipitation Wind Pressure Humidity
    00:00 +9°C° 0 mm 1 mps 722 mmHg 46%
    01:00 +8°C° 0 mm 1 mps 722 mmHg 48%
    02:00 +7°C° 0 mm 2 mps 721 mmHg 49%
    03:00 +7°C° 0 mm 2 mps 721 mmHg 49%
    04:00 +7°C° 0 mm 2 mps 721 mmHg 50%
    05:00 +6°C° 0 mm 2 mps 721 mmHg 52%
    06:00 +6°C° 0 mm 2 mps 721 mmHg 54%
    07:00 +5°C° 0 mm 2 mps 721 mmHg 56%
    08:00 +7°C° 0 mm 2 mps 721 mmHg 51%
    09:00 +8°C° 0 mm 2 mps 721 mmHg 46%
    10:00 +10°C° 0 mm 2 mps 722 mmHg 40%
    11:00 +11°C° 0 mm 1 mps 721 mmHg 37%
    12:00 +12°C° 0 mm 1 mps 720 mmHg 33%
    13:00 +13°C° 0 mm 1 mps 720 mmHg 30%
    14:00 +13°C° 0 mm 1 mps 719 mmHg 29%
    15:00 +14°C° 0 mm 1 mps 719 mmHg 28%
    16:00 +14°C° 0 mm 1 mps 719 mmHg 27%
    17:00 +13°C° 0 mm 2 mps 719 mmHg 32%
    18:00 +12°C° 0 mm 2 mps 719 mmHg 37%
    19:00 +11°C° 0 mm 3 mps 719 mmHg 41%
    20:00 +10°C° 0 mm 2 mps 719 mmHg 44%
    21:00 +10°C° 0 mm 2 mps 719 mmHg 46%
    22:00 +10°C° 0 mm 1 mps 719 mmHg 48%
    23:00 +10°C° 0 mm 1 mps 719 mmHg 49%

    Day after tomorrow, 31 January, Friday

    Time Temperature Precipitation Wind Pressure Humidity
    00:00 +10°C° 0 mm 1 mps 719 mmHg 49%
    01:00 +9°C° 0 mm 1 mps 719 mmHg 50%
    02:00 +9°C° 0 mm 1 mps 719 mmHg 51%
    03:00 +9°C° 0 mm 1 mps 719 mmHg 52%
    04:00 +7°C° 0 mm 0 mps 719 mmHg 53%
    05:00 +7°C° 0 mm 0 mps 719 mmHg 53%
    06:00 +7°C° 0 mm 0 mps 720 mmHg 54%
    07:00 +6°C° 0 mm 0 mps 720 mmHg 54%
    08:00 +9°C° 0 mm 1 mps 720 mmHg 48%
    09:00 +11°C° 0 mm 1 mps 721 mmHg 42%
    10:00 +13°C° 0 mm 1 mps 721 mmHg 36%
    11:00 +14°C° 0 mm 1 mps 721 mmHg 34%
    12:00 +15°C° 0 mm 1 mps 720 mmHg 31%
    13:00 +16°C° 0 mm 1 mps 720 mmHg 29%
    14:00 +16°C° 0 mm 1 mps 720 mmHg 28%
    15:00 +18°C° 0 mm 1 mps 719 mmHg 27%
    16:00 +17°C° 0 mm 2 mps 719 mmHg 26%
    17:00 +16°C° 0 mm 2 mps 719 mmHg 30%
    18:00 +14°C° 0 mm 3 mps 719 mmHg 34%
    19:00 +13°C° 0 mm 3 mps 720 mmHg 38%
    20:00 +12°C° 0 mm 3 mps 720 mmHg 39%
    21:00 +12°C° 0 mm 3 mps 720 mmHg 41%
    22:00 +11°C° 0 mm 3 mps 720 mmHg 42%
    23:00 +11°C° 0 mm 3 mps 720 mmHg 44%

    1 February, Saturday

    Time Temperature Precipitation Wind Pressure Humidity
    00:00 +10°C° 0 mm 3 mps 720 mmHg 45%
    01:00 +10°C° 0 mm 2 mps 719 mmHg 46%
    02:00 +9°C° 0 mm 2 mps 719 mmHg 47%
    03:00 +9°C° 0 mm 2 mps 719 mmHg 47%
    04:00 +9°C° 0 mm 2 mps 719 mmHg 48%
    05:00 +8°C° 0 mm 3 mps 719 mmHg 49%
    06:00 +8°C° 0 mm 3 mps 720 mmHg 49%
    07:00 +8°C° 0 mm 3 mps 720 mmHg 50%
    08:00 +9°C° 0 mm 3 mps 720 mmHg 46%
    09:00 +11°C° 0 mm 4 mps 721 mmHg 42%
    10:00 +12°C° 0 mm 4 mps 721 mmHg 38%
    11:00 +14°C° 0 mm 4 mps 721 mmHg 34%
    12:00 +15°C° 0 mm 4 mps 720 mmHg 30%
    13:00 +17°C° 0 mm 3 mps 720 mmHg 26%
    14:00 +18°C° 0 mm 3 mps 719 mmHg 26%
    15:00 +18°C° 0 mm 3 mps 719 mmHg 25%
    16:00 +18°C° 0 mm 3 mps 719 mmHg 25%
    17:00 +17°C° 0 mm 3 mps 719 mmHg 27%
    18:00 +16°C° 0 mm 3 mps 719 mmHg 29%
    19:00 +14°C° 0 mm 3 mps 719 mmHg 32%
    20:00 +13°C° 0 mm 3 mps 719 mmHg 34%
    21:00 +13°C° 0 mm 4 mps 719 mmHg 36%
    22:00 +12°C° 0 mm 4 mps 719 mmHg 38%
    23:00 +11°C° 0 mm 3 mps 719 mmHg 40%

    2 February, Sunday

    Time Temperature Precipitation Wind Pressure Humidity
    00:00 +11°C° 0 mm 3 mps 719 mmHg 41%
    01:00 +10°C° 0 mm 3 mps 719 mmHg 43%
    02:00 +10°C° 0 mm 3 mps 719 mmHg 45%
    03:00 +9°C° 0 mm 3 mps 718 mmHg 46%
    04:00 +9°C° 0 mm 3 mps 718 mmHg 48%
    05:00 +8°C° 0 mm 2 mps 719 mmHg 50%
    06:00 +8°C° 0 mm 2 mps 719 mmHg 51%
    07:00 +8°C° 0 mm 2 mps 719 mmHg 53%
    08:00 +9°C° 0 mm 2 mps 719 mmHg 49%
    09:00 +12°C° 0 mm 2 mps 720 mmHg 44%
    10:00 +13°C° 0 mm 1 mps 720 mmHg 40%
    11:00 +14°C° 0 mm 1 mps 720 mmHg 38%
    12:00 +15°C° 0 mm 1 mps 719 mmHg 35%
    13:00 +16°C° 0 mm 1 mps 719 mmHg 33%
    14:00 +18°C° 0 mm 1 mps 718 mmHg 32%
    15:00 +18°C° 0 mm 1 mps 718 mmHg 31%
    16:00 +19°C° 0 mm 1 mps 718 mmHg 30%
    17:00 +18°C° 0 mm 1 mps 718 mmHg 34%
    18:00 +16°C° 0 mm 1 mps 718 mmHg 39%
    19:00 +15°C° 0 mm 1 mps 718 mmHg 44%
    20:00 +14°C° 0 mm 1 mps 718 mmHg 45%
    21:00 +14°C° 0 mm 1 mps 718 mmHg 46%
    22:00 +13°C° 0 mm 1 mps 718 mmHg 47%
    23:00 +13°C° 0 mm 2 mps 718 mmHg 48%

    3 February, Monday

    Time Temperature Precipitation Wind Pressure Humidity
    00:00 +13°C° 0 mm 2 mps 717 mmHg 49%
    01:00 +12°C° 0 mm 3 mps 717 mmHg 50%
    02:00 +11°C° 0 mm 4 mps 717 mmHg 52%
    03:00 +11°C° 0 mm 4 mps 717 mmHg 54%
    04:00 +10°C° 0 mm 5 mps 717 mmHg 57%
    05:00 +9°C° 0 mm 5 mps 718 mmHg 58%
    06:00 +9°C° 0 mm 5 mps 718 mmHg 59%
    07:00 +9°C° 0 mm 6 mps 718 mmHg 61%
    08:00 +10°C° 0 mm 6 mps 719 mmHg 57%
    09:00 +11°C° 0 mm 7 mps 720 mmHg 54%
    10:00 +11°C° 0 mm 8 mps 720 mmHg 50%
    11:00 +12°C° 0 mm 7 mps 720 mmHg 48%
    12:00 +14°C° 0 mm 5 mps 720 mmHg 46%
    13:00 +15°C° 0 mm 4 mps 719 mmHg 43%
    14:00 +15°C° 0 mm 4 mps 719 mmHg 43%
    15:00 +16°C° 0 mm 3 mps 719 mmHg 42%
    16:00 +16°C° 0 mm 3 mps 719 mmHg 42%
    17:00 +15°C° 0 mm 2 mps 719 mmHg 46%
    18:00 +14°C° 0 mm 1 mps 719 mmHg 50%
    19:00 +13°C° 0 mm 0 mps 720 mmHg 54%
    20:00 +13°C° 0 mm 1 mps 720 mmHg 56%
    21:00 +13°C° 0 mm 1 mps 720 mmHg 57%
    22:00 +12°C° 0 mm 1 mps 720 mmHg 59%
    23:00 +12°C° 0 mm 2 mps 720 mmHg 58%
    Show more